Content
SEND FEEDBACK

Daily
Averages
Monthly
Summary
United States of America

RED BLUFF, CALIFORNIA


Home > North America > United States > California
Elevation: 344 feet     Latitude: 40 09N     Longitude: 122 15W

WEATHER
 
SELECT A DAY
Number of Records: 183,158;   Date Range: 1/1/95 - 9/20/14
 
SHARE

PRINT THIS DATA

[ ← Previous Day ]
WEATHER ALMANAC - NOVEMBER 21, 2013
[ Next Day → ]
[ °C ]   °F
Weather ElementAverageHighLow
Temperature53.1 °F57.9 °F (1:54 pm)46.9 °F (6:54 am)
Dewpoint14.5 °F28.9 °F (1:54 am)7 °F (11:54 pm)
Humidity23.3 %44 % (1:54 am)15 % (5:54 pm)
Barometer30.11 in30.22 in (10:54 pm)29.96 in (1:54 am)
Wind Speed23.1 mph29.9 mph (11:54 am)
Wind Gust43.7 mph (2:54 pm)
Weather ElementAverage
Visibility10 mi
Wind DirectionWNW (294.3 °)

Weather ElementTotal
Precipitation---
Heating Degree Days12.6 (Base 65)
Growing Degree Days2.4 (Base 50)
Averaged from 23 records on November 21, 2013
WEATHER CONDITIONS BREAKOUT
WIND DIRECTION BREAKOUT
WEATHER BY HOUR - NOVEMBER 21, 2013
[ °C ]   °F
Local TimeTemperatureDewpointHumidityBarometerVisibilityWind DirectionWind SpeedGust SpeedPrecipitationEventsConditions
1:54 AM50.0 °F28.9 °F44 %29.96 in10.0 miNorth (350°)13.8 mph26.5 mphClear
2:54 AM50.0 °F28.0 °F43 %29.97 in10.0 miNNW (340°)18.4 mph25.3 mphClear
3:54 AM50.0 °F26.1 °F39 %29.99 in10.0 miNNW (340°)16.1 mph31.1 mphClear
4:54 AM48.9 °F24.1 °F38 %30.01 in10.0 miNorth (350°)21.9 mph33.4 mphClear
5:54 AM48.0 °F21.9 °F36 %30.03 in10.0 miNorth (350°)19.6 mph27.6 mphClear
6:54 AM46.9 °F19.0 °F33 %30.06 in10.0 miNNW (340°)23.0 mph35.7 mphClear
7:54 AM48.0 °F16.0 °F28 %30.10 in10.0 miNorth (360°)24.2 mph32.2 mphClear
8:54 AM50.0 °F14.0 °F24 %30.11 in10.0 miNorth (350°)25.3 mph33.4 mphClear
9:54 AM51.1 °F12.9 °F22 %30.12 in10.0 miNorth (360°)27.6 mph36.8 mphClear
10:54 AM53.1 °F12.0 °F20 %30.13 in10.0 miNorth (360°)24.2 mph35.7 mphClear
11:54 AM55.0 °F12.0 °F18 %30.11 in10.0 miNorth (360°)29.9 mph38.0 mphClear
12:54 PM57.0 °F12.0 °F17 %30.12 in10.0 miNorth (360°)28.8 mph39.1 mphClear
1:54 PM57.9 °F12.0 °F16 %30.11 in10.0 miNorth (350°)26.5 mph40.3 mphClear
2:54 PM57.9 °F12.0 °F16 %30.12 in10.0 miNorth (10°)27.6 mph43.7 mphClear
3:54 PM57.9 °F10.9 °F16 %30.14 in10.0 miNorth (360°)26.5 mph38.0 mphClear
4:54 PM57.0 °F10.9 °F16 %30.14 in10.0 miNorth (10°)21.9 mph38.0 mphClear
5:54 PM57.0 °F9.0 °F15 %30.17 in10.0 miNorth (10°)19.6 mph34.5 mphClear
6:54 PM55.9 °F9.0 °F15 %30.17 in10.0 miNorth (360°)21.9 mph32.2 mphClear
7:54 PM55.0 °F9.0 °F16 %30.17 in10.0 miNorth (10°)24.2 mph34.5 mphClear
8:54 PM54.0 °F9.0 °F17 %30.18 in10.0 miNorth (360°)20.7 mph35.7 mphClear
9:54 PM54.0 °F9.0 °F17 %30.20 in10.0 miNorth (360°)24.2 mph39.1 mphClear
10:54 PM53.1 °F8.1 °F16 %30.22 in10.0 miNorth (360°)20.7 mph36.8 mphClear
11:54 PM54.0 °F7.0 °F15 %30.22 in10.0 miNorth (360°)24.2 mph40.3 mphClear
Hourly data recorded from KRBL, located miles away from Red Bluff, California







STORIES FROM OUR PARTNERS